Regional Weather Roundup
Issued by NWS Kansas City/Pleasant Hill, MO

Home | Current Version | Previous Version | Text Only | Print | Product List | Glossary On
Versions: 1 2 3 4 5 6 7 8 9 10 11 12 13 14 15 16 17 18 19 20 21 22 23 24 25 26 27 28 29 30 31 32 33 34 35 36 37 38 39 40 41 42 43 44 45 46 47 48 49 50
000
ASUS43 KEAX 211111
RWREAX

WEATHER ROUNDUP FOR EASTERN KANSAS AND NORTHWEST MISSOURI
NATIONAL WEATHER SERVICE KANSAS CITY/PLEASANT HILL MO
500 AM CST SUN DEC 21 2014

KSZ040-057-103>105-MOZ028-029-037-043-211200-
...KANSAS CITY METROPOLITAN AREA...

CITY           SKY/WX    TMP DP  RH WIND       PRES   REMARKS
K.C. INTL      CLOUDY    37  34  89 S13       30.05F WCI  29
K.C. DOWNTOWN  CLOUDY    39  34  82 S12       30.07F WCI  32
LEES SUMMIT    CLOUDY    37  35  92 S7        30.08F FOG     WCI  32
OLATHE - IXD   CLOUDY    36  34  92 S8        30.07F WCI  30
OLATHE - OJC   CLOUDY    36  35  96 S7        30.06F FOG     WCI  30
LAWRENCE       CLOUDY    37  33  85 S8        30.06F WCI  31

$$

MOZ001>008-011>017-020>025-030>033-038>040-044>046-053-054-211200-
...NORTHERN AND CENTRAL MISSOURI...

CITY           SKY/WX    TMP DP  RH WIND       PRES   REMARKS
ST. JOSEPH     CLOUDY    36  33  89 S8        30.05F WCI  30
MOSBY            N/A     36  34  93 SE5       30.08F WCI  32
WARRENSBURG    CLOUDY    41  34  75 S6        30.10F
WHITEMAN AFB   CLOUDY    41  35  81 S7        30.10F
CLINTON        CLOUDY    43  37  81 S5        30.12F
SEDALIA        CLOUDY    42  35  76 S8        30.13S
WARSAW         NOT AVBL
MARSHALL       CLOUDY    43  37  81 S6        30.13F
CHILLICOTHE      N/A     39  35  86 S7        30.10F WCI  34
MOBERLY        CLOUDY    39  34  81 S3        30.14S
KIRKSVILLE     CLOUDY    39  35  86 S7        30.11F WCI  34

$$

MOZ041-047>049-056>058-063>065-088>090-097-211200-
...EASTERN AND SOUTHERN MISSOURI...

CITY           SKY/WX    TMP DP  RH WIND       PRES   REMARKS
ST. LOUIS INTL CLOUDY    41  33  73 SE7       30.20S
SPIRIT OF STL  CLOUDY    40  34  79 SE5       30.19S
COLUMBIA       CLOUDY    40  35  83 SE7       30.14S
JEFFERSON CITY CLOUDY    42  35  76 E6        30.16R
MEXICO         CLOUDY    41  41 100 SE3       30.15S
HANNIBAL       CLOUDY    39  34  81 SE3       30.16R
ROLLA          CLOUDY    39  34  82 S8        30.13S WCI  33
LEBANON        CLOUDY    37  34  87 S6        30.12S WCI  33
OSAGE BEACH    CLOUDY    43  32  65 SW7       30.14S
SPRINGFIELD    CLOUDY    41  36  82 S8        30.10F
BRANSON        CLOUDY    39  37  93 CALM      30.14F
NEVADA         CLOUDY    41  37  87 S9        30.11F
JOPLIN         CLOUDY    43  38  82 S8        30.10F
WEST PLAINS    CLOUDY    38  34  85 S5        30.17F WCI  34

$$

IAZ060-094-KSZ022-034>040-054-083-096-NEZ052-066-093-211200-
...KANSAS...SOUTHEAST NEBRASKA AND IOWA...

CITY           SKY/WX    TMP DP  RH WIND       PRES   REMARKS
TOPEKA         CLOUDY   N/A N/A N/A S8        30.04F
MANHATTAN      PTCLDY    38  35  89 SW7       29.99F WCI  33
EMPORIA        CLOUDY    38  37  97 S8        30.03F WCI  32
CHANUTE        CLOUDY    40  38  93 S12       30.07F WCI  33
WICHITA        CLOUDY    42  36  79 S14       30.00F WCI  35
OMAHA          CLOUDY    37  35  92 S10       29.94F FOG     WCI  30
LINCOLN        CLOUDY    39  36  89 S12       29.92F WCI  32
FALLS CITY     CLOUDY    36  33  89 S12       29.99F WCI  28
LAMONI         CLOUDY    35  34  96 S10       30.03F WCI  27
DES MOINES     CLOUDY    38  34  85 S13       30.01F WCI  30

$$



USA.gov is the U.S. government's official web portal to all federal, state and local government web resources and services.